SCOUT A DEB, 2353

Orbit data source: Space-Track

SCOUT A DEB, 2353 is space debris in LEO originally from a launch on Sat, 26 Mar 1966 UTC launched from the Air Force Western Test Range (AFWTR). Debris objects in space refer to the collection of defunct objects orbiting the Earth. Examples of debris include non-operational satellites, rocket bodies, and fragments generated from explosions, collisions, or faulty payload assembly.

Loading next visibility...
Identifier
2353, 1966-024C
Orbit
LEO
Last TLE update
9 hours ago
Origin
Manufacturer
Unknown
Mission
Spacecraft
Bus & Motor
Unknown
Mass
Unknown
Launch date (UTC)
1966-03-26 (59 years ago)
Launch vehicle
Unknown
Launch site
Air Force Western Test Range (AFWTR)
Object type
Payload
Rocket body
Debris
Shape & HBR
Unknown
Radar Cross Section
Small (<0.1 m²)

Expand to show TLE details & history

TLE from 9 hours ago
0 SCOUT A DEB
1 02353U 66024C   25186.57199074  .00000167  00000-0  14302-3 0  9992
2 02353  89.3851  36.0477 0153141  40.7380 320.5120 13.77329687967326
Epoch: 2025-07-05T13:43Z
TLE epoch observation values (Epoch: 2025-07-05T13:43:39.999Z)
Latitude
0.00002°
Longitude
-93.67708°
Altitude
890.172 km
Speed
7.45 km/s
True Right ascension
02h 24m 11s
True Declination
0° 00' 00"
Sunlit
Object was in daylight at epoch
Visualization orbit readout
Latitude
10.70869°
Longitude
-93.58514°
Altitude
876.609 km
Speed
7.464 km/s
Apparent Right ascension
00h 49m 31s
Apparent Declination
-14° 35' 10"
Sunlit
Object is in daylight
Visualization observer readout
Local Sidereal Time
10:25:56
Azimuth
298.642° NW
Elevation
-49.72°
Doppler factor
1
Orbital elements
Apogee altitude
1,082.919 km
Perigee altitude
857.847 km
Semi-major axis
7,348.52 km
Eccentricity
0.01531
Inclination
89.3851°
RAAN
36.0477°
Arg. of periapsis
40.738°
True anomaly
Unknown
Mean anomaly
320.512°
Eccentric anomaly
Unknown
Mean motion
3.44543 °/min
Orbital period
104.49 mins
BSTAR
0.00014302
Loading maneuver chart data...
Loading SW <> Apogee altitude chart data...
Loading historical data...
Loading historical data...
Loading historical data...
Loading historical data...
Loading historical data...
Loading historical data...
Loading historical data...

SCOUT A DEB Visibility forecast

Observer location: undefined°, undefined°

Span
Click to sort rows by Start time (UTC) header in descending order
Start Az.
Max El. time (UTC)
Max El. Az.
Max El.
End time (UTC)
End Az.
6 mins2025-07-06 00:47:44.664Z46.56° ENE2025-07-06 00:50:44.664Z77.415° E15.022°2025-07-06 00:53:44.664Z107.82° ESE
11 mins2025-07-06 02:30:44.664Z356.675° N2025-07-06 02:35:44.664Z276.78° WNW44.019°2025-07-06 02:41:44.664Z190.445° SSW
9 mins2025-07-06 14:15:44.664Z169.738° S2025-07-06 14:19:44.664Z56.102° ENE44.122°2025-07-06 14:24:44.664Z1.784° NNE
|